Location: Vancouver
(49.2500°N, 123.1330°W)
Time: 09:47:42
(UTC-08:00)

S-56A Canister/Altair - Visible Passes

Search period start: 24 November 2014 00:00
Search period end: 04 December 2014 00:00
Orbit: 634 x 2502 km, 38.9° (Epoch: 23 November)

Date Brightness Start Highest point End Pass type
(mag) Time Alt. Az. Time Alt. Az. Time Alt. Az.
25 Nov 12.4 17:32:36 10° SW 17:34:31 10° SW 17:36:30 10° SW visible
26 Nov 12.3 16:58:30 10° WSW 17:02:01 12° SW 17:05:49 10° SSW visible
03 Dec 10.2 07:04:10 10° S 07:06:01 12° SSE 07:08:00 10° SE visible
